Regional Weather Roundup
Issued by NWS

Home | Current Version | Previous Version | Text Only | Print | Product List | Glossary On
Versions: 1 2 3 4 5 6 7 8 9 10 11 12 13 14 15 16 17 18 19 20 21 22 23 24 25 26 27 28 29 30 31 32 33 34 35 36 37 38 39 40 41 42 43 44 45 46 47 48 49 50
000
ASUS43 KMPX 120910
RWRMN
WEATHER ROUNDUP FOR MINNESOTA
NATIONAL WEATHER SERVICE TWIN CITIES/CHANHASSEN MN
300 AM CST FRI FEB 12 2016


NOTE: "FAIR" INDICATES FEW OR NO CLOUDS BELOW 12,000 FEET WITH NO
SIGNIFICANT WEATHER AND/OR OBSTRUCTIONS TO VISIBILITY. N/A MEANS
CURRENT SKY AND/OR WEATHER CONDITIONS ARE NOT AVAILABLE.

MNZ060>063-068>070-121000-
   Twin Cities Metro

CITY           SKY/WX    TMP DP  RH WIND       PRES   REMARKS
TWIN CITIES    CLOUDY    14   8  77 NW13G18   30.21R WCI   0
ST PAUL        CLOUDY    15   8  73 NW16      30.22R WCI  -1
CRYSTAL        CLOUDY    14   8  77 NW12      30.20R WCI   0
BLAINE         PTCLDY    14  10  85 NW12      30.20R WCI   0
LAKEVILLE      CLOUDY    12  10  92 W8        30.20R WCI   1
EDEN PRAIRIE   CLOUDY    15   8  73 NW10      30.20S WCI   2
SOUTH ST PAUL  CLOUDY    16   9  75 NW8       30.20S WCI   5
LAKE ELMO      CLOUDY    16  10  79 NW8       30.20R WCI   5
$$
MNZ001>005-007-008-013>017-022>024-027-028-121000-
   Northwest Minnesota

CITY           SKY/WX    TMP DP  RH WIND       PRES   REMARKS
BEMIDJI        CLEAR     -2  -6  82 NW10      30.23R WCI -19
HALLOCK        CLEAR     -2  -9  71 N16       30.40R WCI -23
ROSEAU         CLOUDY    -6 -11  77 NW10      30.32R WCI -23
WARROAD        CLOUDY    -6 -11  77 NW10      30.30R WCI -23
THIEF RVR FALL CLEAR     -2 -18  46 NW9       30.33R WCI -18
CROOKSTON      CLEAR      1  -6  71 N17       30.38R WCI -19
FOSSTON        CLEAR     -6  -9  84 NW7       30.30R WCI -20
DETROIT LAKES  CLEAR      5   1  85 NW12G17   30.29R WCI -11
MOORHEAD       CLEAR      7   0  72 N13       30.37R WCI  -9
PARK RAPIDS    CLEAR      2  -5  72 NW10      30.22R WCI -14
MAHNOMEN       FAIR       0  -6  78 NW12      30.30R WCI -18
$$
MNZ006-009>011-018-025>026-121000-
   North Central Minnesota

CITY           SKY/WX    TMP DP  RH WIND       PRES   REMARKS
BAUDETTE       CLEAR     -5 -13  68 NW20      30.23R WCI -28
FLAG ISLAND    MOCLDY    -8 -13  77 NW18      30.27R WCI -31
INTL FALLS     PTCLDY    -4 -10  75 NW8       30.18R WCI -19
WASKISH        CLEAR     -6  -9  84 NW9       30.24R WCI -22
LONGVILLE      MOCLDY     3  -2  78 NW7       30.21R WCI  -9
GRAND RAPIDS   MOCLDY     3  -2  78 NW12      30.17R WCI -13
CRANE LAKE     CLEAR     -2  -9  71 NW7       30.17R WCI -16
ORR            CLEAR     -2  -9  71 NW8       30.11R WCI -17
COOK           PTCLDY    -2  -6  84 W8        30.14R WCI -17
WALKER         PTSUNNY    1  -4  76 NW10      30.22R WCI -14
$$
MNZ012-019>021-037-121000-
   Northeast Minnesota

CITY           SKY/WX    TMP DP  RH WIND       PRES   REMARKS
DULUTH         PTCLDY     4  -5  66 NW12      30.10R WCI -12
ELY            CLEAR      0  -8  71 W8        30.08R WCI -15
HIBBING        PTCLDY     0  -5  79 NW16G25   30.14R WCI -20
EVELETH        CLEAR      3  -4  72 NW16G24   30.12S WCI -16
DULUTH HARBOR  CLEAR     10   0  61 NW14G21   30.19R WCI  -5
TWO HARBORS    CLEAR      7  -4  61 W9        30.08R WCI  -7
SILVER BAY     CLEAR      5  -4  66 W9        30.06R WCI  -9
GRAND MARAIS     N/A      8  -1  66 W7        30.07S WCI  -3
G MARAIS ARPRT PTCLDY     0  -8  71 W9G20     29.93F WCI -16
$$
MNZ029>031-032-039>041-046>048-054>057-064-121000-
   West Central Minnesota

CITY           SKY/WX    TMP DP  RH WIND       PRES   REMARKS
FERGUS FALLS   CLOUDY     7   1  78 N13       30.35R WCI  -9
WHEATON        FLURRIES  10   9  92 NW10      30.36R WCI  -3
MORRIS         CLOUDY     9   5  85 NW13      30.28R WCI  -7
ALEXANDRIA     PTCLDY     6   1  80 NW9       30.25R WCI  -8
ELBOW LAKE     CLOUDY     9   6  86 W13       30.30R WCI  -6
WADENA         CLEAR      3   0  85 NW8       30.24R WCI -10
GLENWOOD       MOCLDY     5   1  85 W10       30.25R WCI -10
APPLETON       CLOUDY    10   7  85 NW9       30.31R WCI  -2
BENSON         CLOUDY     9   5  85 N8        30.29R WCI  -4
ORTONVILLE     CLOUDY     9   3  78 NW9       30.31R WCI  -5
MADISON        PTCLDY    10   7  85 NW15      30.32R WCI  -6
WILLMAR        CLOUDY    12   9  85 NW13      30.27R WCI  -3
$$
MNZ033>034-036-042>043-049>051-058-059-121000-
   Central Minnesota

CITY           SKY/WX    TMP DP  RH WIND       PRES   REMARKS
ST CLOUD       CLEAR      5   0  79 NW10      30.22R WCI -10
SAUK CENTRE    FAIR       4   0  84 W7        30.24R WCI  -8
PAYNESVILLE    PTCLDY    10   5  81 NW8G16    30.24R WCI  -2
AITKIN         MOCLDY    10  -2  56 NW8       30.18R WCI  -1
PINE RIVER     CLEAR      5  -4  66 NW9G23    30.24R WCI  -9
BRAINERD       PTCLDY     7   0  73 NW13      30.21R WCI  -9
STAPLES        CLEAR      3   0  85 NW10      30.23R WCI -12
LONG PRAIRIE   FAIR       5   1  85 W10       30.24R WCI -10
LITTLE FALLS   MOCLDY     9   3  78 NW8       30.23R WCI  -4
LITCHFIELD     PTCLDY    12  10  92 NW9       30.24R WCI   0
BUFFALO        CLEAR     11   7  81 W7        30.23R WCI   1
MAPLE LAKE     CLEAR     12   8  85 NW7       30.23R WCI   1
$$
MNZ037-044-045-052-053-121000-
   East Central Minnesota

CITY           SKY/WX    TMP DP  RH WIND       PRES   REMARKS
PRINCETON      CLEAR      9   3  78 W7        30.21R WCI  -3
MORA           MOCLDY    12   1  62 NW13G20   30.20R WCI  -3
CAMBRIDGE      PTCLDY    12   3  67 NW7       30.19R WCI   2
RUSH CITY      CLOUDY    12   2  64 NW9       30.20R WCI   0
MOOSE LAKE     CLOUDY    10   1  67 NW10G21   30.16R WCI  -3
HINCKLEY       FAIR      12   1  62 NW9G16    30.18R WCI   0
CLOQUET        PTCLDY     7  -2  66 NW12G21   30.14R WCI  -9
MCGREGOR       CLOUDY     9   1  72 NW10      30.18R WCI  -6
$$
MNZ071>073-080-081-089-090-097-098-121000-
   Southwest Minnesota

CITY           SKY/WX    TMP DP  RH WIND       PRES   REMARKS
MONTEVIDEO     PTCLDY     7   3  85 N9        30.32R WCI  -7
GRANITE FALLS  PTCLDY    11   8  85 NW12      30.31R WCI  -3
CANBY          CLOUDY    15  11  84 W14       30.31R WCI   1
MARSHALL       FLURRIES  11   7  84 NW16      30.29R WCI  -6
REDWOOD FALLS  PTCLDY    14  10  84 NW12G22   30.26R WCI   0
OLIVIA         CLEAR     14  10  85 NW12      30.26R WCI   0
PIPESTONE      PTCLDY    16   9  73 N9        30.24R WCI   4
WINDOM         LGT SNOW  14  10  85 NW16      30.22R WCI  -2
WORTHINGTON    CLOUDY    14   9  79 NW15      30.23R WCI  -1
JACKSON        CLOUDY    18  12  79 NW14      30.22R WCI   4
TRACY          CLOUDY    13  10  88 NW16G22   30.26R WCI  -3
SLAYTON        FLURRIES  13  11  94 NW15      30.24R WCI  -3
$$
MNZ065>067-074>077-082>085-091>093-121000-
   South Central Minnesota

CITY           SKY/WX    TMP DP  RH WIND       PRES   REMARKS
MANKATO        CLOUDY    16  10  79 NW8       30.22R WCI   5
NEW ULM        LGT SNOW  16  10  79 NW10G17   30.23R WCI   3
ST JAMES       CLOUDY    18  16  93 NW17      30.24S WCI   2
FAIRMONT       CLOUDY    16  10  79 NW12      30.21R WCI   3
GLENCOE        CLOUDY    16  12  86 NW12      30.23R WCI   2
FARIBAULT        N/A     12  10  92 W6        30.20R WCI   3
OWATONNA       FLURRIES  12   9  85 W6        30.18F WCI   3
WASECA         CLOUDY    14  12  92 W8        30.22R WCI   3
ALBERT LEA     FLURRIES  14  10  85 W6        30.18S WCI   5
$$
MNZ078>079-086>088-094>096-121000-
   Southeast Minnesota

CITY           SKY/WX    TMP DP  RH WIND       PRES   REMARKS
ROCHESTER      CLOUDY    12   9  87 W9        30.16S WCI   0
RED WING       CLOUDY    12   9  85 W3        30.19S
STANTON        CLOUDY    15  10  81 W5        30.19R WCI   7
DODGE CENTER   FLURRIES  12   9  85 W9        30.16S WCI   0
WINONA         CLOUDY    14  10  85 N3        30.20F
AUSTIN         LGT SNOW  12  10  92 NW8       30.17S WCI   1
PRESTON        LGT SNOW  11   8  85 NW9       30.16S WCI  -1
$$
ABBREVIATIONS USED IN REMARKS
   TC - TEMPERATURES IN CELSIUS
  WCI - WIND CHILL INDEX
   HX - HEAT INDEX
  VSB - VISIBILITY
$$




USA.gov is the U.S. government's official web portal to all federal, state and local government web resources and services.